📊 Raw Sensor Data
Showing records 32476 to 32500 of 84,703 total
| ID | Distance (ft) | Battery V | Battery A | Int Temp (°F) | Int Humid (%) | Ext Temp (°F) | Solar V | RSSI | SNR | Time Stamp |
|---|---|---|---|---|---|---|---|---|---|---|
| 52240 | 14.8 | 4.14 | 59 | 61 | 41 | 65 | 4.50 | -73 | 8 | 09/17/2025 08:00 AM |
| 52239 | 14.8 | 4.06 | 35 | 58 | 42 | 62 | 4.50 | -71 | 8 | 09/17/2025 07:45 AM |
| 52238 | 14.8 | 4.01 | 12 | 57 | 43 | 60 | 4.50 | -70 | 8 | 09/17/2025 07:30 AM |
| 52237 | 14.8 | 3.96 | 5 | 56 | 43 | 59 | 4.50 | -70 | 8 | 09/17/2025 07:15 AM |
| 52236 | 14.8 | 3.92 | -10 | 56 | 44 | 58 | 4.50 | -70 | 8 | 09/17/2025 07:00 AM |
| 52235 | 14.8 | 3.98 | -9 | 55 | 44 | 56 | 3.30 | -70 | 8 | 09/17/2025 06:45 AM |
| 52234 | 14.8 | 3.94 | -5 | 55 | 44 | 56 | 0.20 | -70 | 8 | 09/17/2025 06:30 AM |
| 52233 | 14.8 | 3.94 | -5 | 55 | 44 | 57 | 0.00 | -70 | 7 | 09/17/2025 06:15 AM |
| 52232 | 14.8 | 3.99 | -5 | 56 | 44 | 57 | 0.00 | -69 | 8 | 09/17/2025 06:00 AM |
| 52231 | 14.8 | 3.94 | -5 | 56 | 44 | 58 | 0.00 | -70 | 7 | 09/17/2025 05:45 AM |
| 52230 | 14.8 | 3.94 | -5 | 56 | 44 | 58 | 0.10 | -69 | 8 | 09/17/2025 05:30 AM |
| 52229 | 14.9 | 3.94 | -5 | 56 | 44 | 58 | 0.00 | -69 | 8 | 09/17/2025 05:15 AM |
| 52228 | 14.8 | 4.00 | -5 | 56 | 44 | 58 | 0.00 | -69 | 8 | 09/17/2025 05:00 AM |
| 52227 | 14.8 | 3.94 | -5 | 56 | 45 | 58 | 0.00 | -70 | 8 | 09/17/2025 04:45 AM |
| 52226 | 14.8 | 3.94 | -5 | 56 | 45 | 58 | 0.10 | -69 | 8 | 09/17/2025 04:30 AM |
| 52225 | 14.8 | 3.94 | -5 | 57 | 44 | 58 | 0.00 | -70 | 8 | 09/17/2025 04:15 AM |
| 52224 | 14.8 | 4.00 | -5 | 57 | 44 | 59 | 0.00 | -69 | 8 | 09/17/2025 04:00 AM |
| 52223 | 14.8 | 3.94 | -5 | 58 | 44 | 60 | 0.00 | -69 | 8 | 09/17/2025 03:45 AM |
| 52222 | 14.8 | 3.94 | -5 | 57 | 45 | 60 | 0.00 | -69 | 7 | 09/17/2025 03:30 AM |
| 52221 | 14.8 | 4.00 | -5 | 58 | 45 | 60 | 0.00 | -69 | 8 | 09/17/2025 03:15 AM |
| 52220 | 14.8 | 4.00 | -5 | 58 | 45 | 60 | 0.10 | -70 | 8 | 09/17/2025 03:00 AM |
| 52219 | 14.8 | 3.95 | -5 | 59 | 45 | 60 | 0.00 | -70 | 8 | 09/17/2025 02:45 AM |
| 52218 | 14.8 | 3.95 | -5 | 59 | 46 | 61 | 0.00 | -69 | 8 | 09/17/2025 02:30 AM |
| 52217 | 14.8 | 3.95 | -5 | 60 | 46 | 61 | 0.00 | -69 | 8 | 09/17/2025 02:15 AM |
| 52216 | 14.8 | 3.95 | -5 | 60 | 46 | 61 | 0.10 | -71 | 7 | 09/17/2025 02:00 AM |